Angleton, TX

3:46 PM CST on December 07, 2019 (GMT -0600)
Brazoria County

Weather History for KLBX - June, 2019

Change the Weather History Date:

Friday, June 7, 2019

  Actual Average Record
Temperature  
Mean Temperature 82 °F -  
Max Temperature 93 °F 86 °F 93 °F (2008)
Min Temperature 73 °F 70 °F 64 °F (2006)
Cooling Degree Days 17    
Growing Degree Days 32 (Base 50)    
Moisture  
Dew Point 75 °F    
Average Humidity 79    
Maximum Humidity 94    
Minimum Humidity 59    
Precipitation  
Precipitation 0.00 in - - ()
Sea Level Pressure  
Sea Level Pressure 29.74 in    
Wind  
Wind Speed 4 mph (West)    
Max Wind Speed 9 mph    
Max Gust Speed -    
Visibility 10 miles    
Events Thunderstorm    
Averages and records for this station are not official NWS values.
T = Trace of Precipitation, MM = Missing Value Source: NWS Daily Summary

Daily Weather History Graph

Daily Weather History Graph

Search for Another Location

Airport or City:

Astronomy

Jun. 07, 2019 Rise Set
Actual Time 6:22 AM CDT 8:19 PM CDT
Civil Twilight 5:55 AM CDT 8:46 PM CDT
Nautical Twilight 5:22 AM CDT 9:18 PM CDT
Astronomical Twilight 4:48 AM CDT 9:53 PM CDT
Moon 10:35 AM CDT No Moon Set
Length of Visible Light 14h 50m
Length of Day
13h 56m
Waxing Crescent, 22% of the Moon is Illuminated
Jun 7
Waxing Crescent
Jun 10
First Quarter
Jun 17
Full
Jun 25
Last Quarter
Jul 2
New

Hourly Weather History & Observations

Time (CDT) Temp. Heat Index Dew Point Humidity Pressure Visibility Wind Dir Wind Speed Gust Speed Precip Events Conditions
12:53 AM 75.0 °F - 72.0 °F 90% 29.76 in 10.0 mi WSW 4.6 mph - N/A   Clear
1:53 AM 73.9 °F - 71.1 °F 91% 29.75 in 10.0 mi West 4.6 mph - N/A   Clear
2:53 AM 73.9 °F - 71.1 °F 91% 29.75 in 10.0 mi West 3.5 mph - N/A   Mostly Cloudy
3:53 AM 73.9 °F - 72.0 °F 93% 29.74 in 10.0 mi WNW 3.5 mph - N/A   Partly Cloudy
4:53 AM 73.9 °F - 72.0 °F 93% 29.74 in 10.0 mi Calm Calm - N/A   Clear
5:53 AM 73.9 °F - 72.0 °F 93% 29.74 in 10.0 mi Calm Calm - N/A   Clear
6:53 AM 75.0 °F - 73.0 °F 94% 29.76 in 9.0 mi Calm Calm - N/A   Clear
7:53 AM 78.1 °F - 75.0 °F 90% 29.76 in 10.0 mi Calm Calm - N/A   Clear
8:53 AM 82.0 °F 90.2 °F 77.0 °F 85% 29.77 in 9.0 mi WSW 6.9 mph - N/A   Partly Cloudy
9:08 AM 82.0 °F 91.0 °F 78.1 °F 88% 29.77 in 9.0 mi WSW 6.9 mph - N/A   Mostly Cloudy
9:46 AM 82.9 °F 92.8 °F 78.1 °F 85% 29.77 in 9.0 mi Variable 5.8 mph - N/A   Overcast
9:53 AM 84.0 °F 94.8 °F 78.1 °F 82% 29.77 in 9.0 mi West 5.8 mph - N/A   Overcast
10:53 AM 86.0 °F 98.3 °F 78.1 °F 77% 29.77 in 10.0 mi WNW 9.2 mph - N/A   Mostly Cloudy
11:07 AM 87.1 °F 98.8 °F 77.0 °F 72% 29.77 in 10.0 mi West 9.2 mph - N/A   Scattered Clouds
11:53 AM 88.0 °F 100.2 °F 77.0 °F 70% 29.77 in 10.0 mi Variable 6.9 mph - N/A   Scattered Clouds
12:53 PM 89.1 °F 100.2 °F 75.9 °F 65% 29.75 in 10.0 mi Variable 4.6 mph - N/A   Partly Cloudy
1:53 PM 90.0 °F 101.3 °F 75.9 °F 63% 29.74 in 10.0 mi North - - N/A   Partly Cloudy
2:53 PM 91.9 °F 105.9 °F 77.0 °F 62% 29.72 in 10.0 mi NNW 6.9 mph - N/A   Partly Cloudy
3:53 PM 91.9 °F 103.9 °F 75.9 °F 59% 29.70 in 10.0 mi West 5.8 mph - N/A   Partly Cloudy
4:53 PM 89.1 °F 103.2 °F 78.1 °F 70% 29.69 in 10.0 mi Calm Calm - N/A   Scattered Clouds
5:00 PM 91.0 °F 106.2 °F 78.1 °F 66% 29.69 in 10.0 mi Variable 5.8 mph - N/A Thunderstorm Clear
5:25 PM 87.1 °F 94.5 °F 73.0 °F 63% 29.69 in 10.0 mi West 8.1 mph - N/A   Clear
5:53 PM 88.0 °F 96.5 °F 73.9 °F 63% 29.68 in 10.0 mi West 3.5 mph - N/A   Clear
6:53 PM 87.1 °F 99.8 °F 78.1 °F 74% 29.68 in 10.0 mi Calm Calm - N/A   Clear
7:53 PM 84.9 °F 96.6 °F 78.1 °F 80% 29.70 in 10.0 mi Calm Calm - N/A   Clear
8:53 PM 81.0 °F 87.9 °F 77.0 °F 88% 29.72 in 10.0 mi Calm Calm - N/A   Clear
9:53 PM 80.1 °F 85.8 °F 77.0 °F 90% 29.72 in 10.0 mi Calm Calm - N/A   Clear
10:53 PM 80.1 °F 84.2 °F 73.0 °F 79% 29.74 in 10.0 mi NNW 6.9 mph - N/A   Clear
11:53 PM 77.0 °F - 72.0 °F 84% 29.76 in 10.0 mi Calm Calm - N/A   Clear